Energy, IL

1:05 AM CST on February 14, 2016 (GMT -0600)
Williamson County Regional

Weather History for KMWA - April, 2013

Change the Weather History Date:

Tuesday, April 30, 2013

  Actual Average Record
Temperature  
Mean Temperature 70 °F -  
Max Temperature 82 °F 70 °F 87 °F (1987)
Min Temperature 57 °F 48 °F 33 °F (1969)
Cooling Degree Days 4    
Growing Degree Days 20 (Base 50)    
Moisture  
Dew Point 56 °F    
Average Humidity 66    
Maximum Humidity 88    
Minimum Humidity 39    
Precipitation  
Precipitation 0.00 in - - ()
Sea Level Pressure  
Sea Level Pressure 29.94 in    
Wind  
Wind Speed 6 mph (SSE)    
Max Wind Speed 12 mph    
Max Gust Speed -    
Visibility 12 miles    
Events      
Averages and records for this station are not official NWS values.
T = Trace of Precipitation, MM = Missing Value Source: NWS Daily Summary

Daily Weather History Graph

Daily Weather History Graph

Search for Another Location

Airport or City:

Trip Planner

Search our weather history database for the weather conditions in past years. The results will help you decide how hot, cold, wet, or windy it might be!

Date:

Astronomy

Apr. 30, 2013 Rise Set
Actual Time 6:01 AM CDT 7:45 PM CDT
Civil Twilight 5:33 AM CDT 8:14 PM CDT
Nautical Twilight 4:59 AM CDT 8:48 PM CDT
Astronomical Twilight 4:22 AM CDT 9:24 PM CDT
Moon 12:07 AM CDT (4/30) 10:31 AM CDT (4/30)
Length of Visible Light 14h 40m
Length of Day
13h 44m
Waning Gibbous, 70% of the Moon is Illuminated
Apr 30
Waning Gibbous
May 2
Last Quarter
May 9
New
May 17
First Quarter
May 24
Full

Hourly Weather History & Observations

Time (CDT) Temp. Heat Index Dew Point Humidity Pressure Visibility Wind Dir Wind Speed Gust Speed Precip Events Conditions
12:15 AM 60.8 °F - 55.4 °F 82% 29.90 in 10.0 mi SSE 5.8 mph - N/A   Clear
12:35 AM 62.6 °F - 57.2 °F 82% 29.91 in 10.0 mi SSE 4.6 mph - N/A   Clear
12:55 AM 62.6 °F - 57.2 °F 82% 29.90 in 10.0 mi SSE 5.8 mph - N/A   Clear
1:15 AM 62.6 °F - 57.2 °F 82% 29.90 in 10.0 mi South 8.1 mph - N/A   Clear
1:35 AM 62.6 °F - 55.4 °F 77% 29.90 in 10.0 mi South 6.9 mph - N/A   Clear
1:55 AM 64.4 °F - 55.4 °F 73% 29.90 in 10.0 mi South 8.1 mph - N/A   Clear
2:15 AM 64.4 °F - 55.4 °F 73% 29.89 in 10.0 mi South 8.1 mph - N/A   Clear
2:35 AM 62.6 °F - 55.4 °F 77% 29.89 in 10.0 mi South 8.1 mph - N/A   Clear
2:55 AM 59.0 °F - 55.4 °F 88% 29.90 in 10.0 mi South 5.8 mph - N/A   Clear
3:15 AM 59.0 °F - 55.4 °F 88% 29.90 in 10.0 mi South 4.6 mph - N/A   Clear
3:35 AM 59.0 °F - 55.4 °F 88% 29.90 in 10.0 mi South 3.5 mph - N/A   Clear
3:55 AM 59.0 °F - 53.6 °F 82% 29.90 in 10.0 mi SSE 4.6 mph - N/A   Clear
4:15 AM 57.2 °F - 53.6 °F 88% 29.90 in 10.0 mi South 5.8 mph - N/A   Clear
4:35 AM 60.8 °F - 55.4 °F 82% 29.90 in 10.0 mi South 5.8 mph - N/A   Clear
4:55 AM 60.8 °F - 55.4 °F 82% 29.91 in 10.0 mi South 5.8 mph - N/A   Clear
5:15 AM 57.2 °F - 53.6 °F 88% 29.91 in 10.0 mi South 4.6 mph - N/A   Clear
5:35 AM 57.2 °F - 53.6 °F 88% 29.91 in 10.0 mi South 3.5 mph - N/A   Clear
5:55 AM 57.2 °F - 53.6 °F 88% 29.92 in 10.0 mi South 3.5 mph - N/A   Clear
6:15 AM 59.0 °F - 55.4 °F 88% 29.92 in 10.0 mi South 5.8 mph - N/A   Clear
6:52 AM 60.8 °F - 55.4 °F 82% 29.93 in 20.0 mi SE 6.9 mph - N/A   Clear
7:58 AM 66.2 °F - 57.2 °F 73% 29.96 in 20.0 mi South 6.9 mph - N/A   Clear
8:53 AM 69.8 °F - 55.4 °F 60% 29.97 in 20.0 mi South 8.1 mph - N/A   Clear
9:54 AM 73.4 °F - 55.4 °F 53% 29.97 in 20.0 mi SSW 8.1 mph - N/A   Partly Cloudy
10:57 AM 77.0 °F - 55.4 °F 47% 29.97 in 20.0 mi South 9.2 mph - N/A   Scattered Clouds
11:56 AM 78.8 °F - 57.2 °F 47% 29.96 in 20.0 mi SSW 11.5 mph - N/A   Scattered Clouds
12:58 PM 80.6 °F 80.5 °F 55.4 °F 42% 29.94 in 20.0 mi South 9.2 mph - N/A   Clear
1:55 PM 82.4 °F 81.7 °F 55.4 °F 39% 29.93 in 20.0 mi SW 5.8 mph - N/A   Partly Cloudy
2:55 PM 82.4 °F 82.0 °F 57.2 °F 42% 29.94 in 20.0 mi South 11.5 mph - N/A   Scattered Clouds
3:55 PM 82.4 °F 81.7 °F 55.4 °F 39% 29.93 in 20.0 mi SSW 11.5 mph - N/A   Scattered Clouds
4:55 PM 82.4 °F 81.7 °F 55.4 °F 39% 29.93 in 20.0 mi SSW 11.5 mph - N/A   Scattered Clouds
5:52 PM 80.6 °F 80.5 °F 55.4 °F 42% 29.93 in 20.0 mi South 11.5 mph - N/A   Scattered Clouds
6:35 PM 78.8 °F - 57.2 °F 47% 29.94 in 10.0 mi South 8.1 mph - N/A   Clear
6:55 PM 77.0 °F - 59.0 °F 54% 29.94 in 10.0 mi South 5.8 mph - N/A   Clear
7:15 PM 77.0 °F - 55.4 °F 47% 29.95 in 10.0 mi SSE 4.6 mph - N/A   Clear
7:35 PM 73.4 °F - 57.2 °F 57% 29.95 in 10.0 mi SSE 4.6 mph - N/A   Clear
7:55 PM 73.4 °F - 55.4 °F 53% 29.96 in 10.0 mi SE 3.5 mph - N/A   Clear
8:15 PM 71.6 °F - 57.2 °F 60% 29.96 in 10.0 mi SE 3.5 mph - N/A   Clear
8:35 PM 69.8 °F - 57.2 °F 64% 29.97 in 10.0 mi SE 3.5 mph - N/A   Clear
8:55 PM 69.8 °F - 55.4 °F 60% 29.98 in 10.0 mi SE 4.6 mph - N/A   Clear
9:15 PM 69.8 °F - 55.4 °F 60% 29.99 in 10.0 mi SE 4.6 mph - N/A   Clear
9:35 PM 71.6 °F - 55.4 °F 57% 29.99 in 10.0 mi SSE 4.6 mph - N/A   Clear
9:55 PM 69.8 °F - 55.4 °F 60% 30.00 in 10.0 mi Calm Calm - N/A   Clear
10:15 PM 69.8 °F - 55.4 °F 60% 30.00 in 10.0 mi SE 3.5 mph - N/A   Clear
10:35 PM 68.0 °F - 55.4 °F 64% 30.00 in 10.0 mi ESE 3.5 mph - N/A   Clear
10:55 PM 68.0 °F - 53.6 °F 60% 30.00 in 10.0 mi ESE 3.5 mph - N/A   Clear
11:15 PM 68.0 °F - 53.6 °F 60% 30.00 in 10.0 mi SE 3.5 mph - N/A   Clear
11:35 PM 68.0 °F - 53.6 °F 60% 30.00 in 10.0 mi SE 4.6 mph - N/A   Clear
11:55 PM 66.2 °F - 53.6 °F 64% 30.00 in 10.0 mi ESE 3.5 mph - N/A   Clear